Location: Piotrkow Trybunalski
(51.4000°N, 19.6830°E)
Time: 22:33:19
(UTC+01:00)

ISS - Pass Details

Date: 29 January 2020
Orbit: 415 x 423 km, 51.6° (Epoch: 25 February)

Event Time Altitude Azimuth Distance (km) Brightness Sun altitude
Rises 19:14:42 0° 280° (W) 2,381 1.4 -26.4°
Reaches altitude 10° 19:16:48 10° 279° (W) 1,513 0.1 -26.7°
Enters shadow 19:18:23 25° 277° (W) 893 -1.5 -27.0°
